RH
42 41 45 47 44 42 35 23 17 18 17 19 24 29 34 35 29 26 25 25 24 24 27 26 24 25 26 28 23 20 24 40 50 40 44 60 57 72
51 48 42 29 22 24 27 26 23 21 19 16 12 11 10 10 13 20 20 20 23 20 14 12 17 24 26 33 40 40 27 26 32 49 55 83 97 97
23 28 51 47 39 31 27 20 14 11 12 11 11 11 10 11 12 11 8 8 8 8 8 6 8 16 38 39 39 42 41 39 23 22 27 50 63 75
32 44 48 38 34 27 16 11 11 11 12 14 16 14 14 15 12 10 10 11 10 9 7 6 4 27 52 51 49 43 46 48 40 30 26 29 33 38
8 15 38 37 35 24 12 11 9 8 10 11 15 13 15 25 19 14 14 13 11 8 6 5 28 44 53 62 62 58 54 50 49 50 52 54 98 54
10 11 32 36 33 19 10 9 8 8 12 16 16 17 46 72 35 16 10 10 9 6 12 42 52 54 57 63 71 73 77 81 84 80 77 71 65 59
11 14 21 26 20 14 11 10 9 9 13 17 19 19 59 61 64 46 30 36 38 43 42 44 43 42 39 41 50 60 76 85 84 87 88 88 84 73
17 11 14 18 18 15 11 10 9 11 12 16 19 25 53 57 55 54 43 40 42 44 39 24 28 43 86 77 100 85 84 89 99 93 94 95 97 98
85 28 14 11 13 14 11 10 11 11 11 17 21 15 40 56 55 49 50 46 48 42 33 21 37 47 73 96 99 88 85 97 99 97 96 92 98 99
93 94 72 26 12 11 11 10 10 11 12 16 22 14 16 40 62 58 62 49 44 43 45 52 49 52 95 88 97 82 84 98 93 98 98 98 91 96
58 81 95 98 81 41 18 12 12 13 13 16 23 22 11 18 44 61 67 53 52 55 59 69 66 57 79 71 96 86 71 73 87 78 85 87 87 71
24 36 59 83 99 96 94 82 40 21 15 17 24 25 18 30 58 68 69 63 57 62 66 76 88 77 72 74 87 91 86 81 89 92 90 78 66 81
5 9 15 32 76 99 97 98 96 66 27 18 24 25 30 59 61 63 68 61 59 69 76 76 83 87 89 90 93 92 97 98 98 88 87 80 78 89
2 3 4 6 32 87 100 100 98 98 44 19 23 22 21 47 62 67 81 60 60 70 72 80 71 79 80 86 96 97 98 97 100 94 90 87 94 87
2 2 2 3 4 55 100 100 100 97 44 20 22 20 20 30 71 85 83 73 63 75 76 81 71 75 74 71 85 91 97 99 97 99 99 93 91 99
2 2 2 2 2 11 85 100 100 99 59 23 24 24 23 25 31 48 52 25 36 73 76 82 82 85 74 85 98 98 89 97 100 100 100 100 92 98
2 2 2 2 2 3 33 88 100 99 83 27 28 30 29 27 25 24 27 25 22 22 24 40 72 89 98 100 99 86 96 98 96 96 96 94 92 94
2 2 2 2 2 3 10 80 95 100 96 42 32 36 36 34 28 27 25 26 26 27 26 26 26 28 31 40 38 34 32 34 36 37 37 51 55 52
2 2 2 2 5 11 16 77 100 100 100 78 34 41 42 39 33 30 31 30 30 40 49 43 40 38 37 34 33 28 24 23 22 19 18 16 14 14
3 3 9 12 23 81 36 83 100 100 100 75 35 40 42 40 36 34 35 35 40 58 62 54 46 41 39 35 29 24 22 20 21 34 48 54 55 53
6 4 10 39 27 80 100 100 100 100 100 89 41 34 40 41 39 36 36 37 38 44 54 56 53 43 33 27 23 20 19 20 25 44 62 68 71 68
58 12 32 72 79 89 100 100 100 100 100 99 57 36 36 38 38 37 37 40 51 67 52 56 60 49 34 27 28 28 26 24 24 31 44 55 61 61
61 88 100 100 100 99 100 100 100 100 100 100 89 63 47 37 38 39 40 40 41 44 55 63 63 53 42 37 38 37 37 40 43 48 56 63 69 66
Wind_Speed
49 52 52 52 50 49 48 48 47 46 46 46 45 47 49 52 53 55 55 56 56 55 55 55 55 56 58 60 60 61 63 64 65 63 61 66 65 65
50 47 48 47 45 43 43 42 43 42 41 43 46 48 52 54 56 55 54 55 56 57 57 57 58 57 58 60 59 60 61 59 61 63 61 59 53 47
44 42 42 42 41 40 40 40 41 42 44 46 50 53 56 59 60 60 60 58 58 58 58 58 59 59 59 58 58 59 59 58 56 58 61 64 61 61
42 44 42 42 40 41 41 41 41 42 44 47 50 55 56 60 64 66 68 67 65 63 63 62 61 59 59 59 56 54 55 56 57 56 56 58 61 56
42 44 41 41 41 43 41 40 41 44 47 52 48 50 55 60 62 65 65 67 67 64 61 60 59 59 59 59 59 56 54 54 55 57 56 51 47 57
40 41 43 43 42 43 42 41 44 45 45 46 48 49 45 42 42 39 42 47 51 55 56 56 57 59 60 61 63 62 57 54 54 53 54 54 55 56
43 41 42 43 44 45 45 44 45 44 43 45 46 44 41 42 40 38 38 39 43 47 49 53 54 57 57 59 62 62 61 59 56 54 53 54 54 53
49 47 46 47 47 47 49 49 46 44 43 43 42 41 41 41 39 37 35 37 38 44 44 43 37 40 38 43 48 47 49 55 54 52 52 53 52 51
51 52 52 52 52 49 51 50 49 46 44 43 41 40 40 38 35 35 34 34 38 37 37 36 40 38 40 37 32 41 44 46 50 52 52 46 47 51
57 55 54 55 54 53 51 50 49 47 45 43 42 39 40 39 39 38 38 36 35 32 32 32 35 35 30 28 29 33 36 41 36 33 39 41 45 45
62 60 58 57 56 55 54 52 51 48 46 44 43 41 39 40 38 39 36 36 32 29 30 30 31 31 32 30 31 29 29 32 34 34 38 38 37 37
64 63 62 60 59 56 54 52 51 49 47 44 43 42 39 38 37 34 32 30 30 30 31 29 27 30 33 34 34 32 31 30 34 36 35 35 35 38
67 65 63 62 61 60 57 52 49 49 47 43 42 39 35 36 36 34 33 29 28 27 29 26 26 26 27 29 30 30 24 25 29 33 37 34 37 40
64 65 64 61 59 59 58 55 49 48 47 42 40 36 32 31 31 32 29 27 26 28 28 24 21 23 22 22 23 24 27 28 33 33 32 27 28 29
61 60 60 58 57 57 56 55 50 49 46 42 38 35 31 26 28 29 29 29 29 26 21 20 22 22 24 23 23 22 22 24 25 20 22 29 23 26
56 57 57 54 52 55 57 55 51 52 46 43 40 37 33 28 25 24 24 23 21 23 25 25 21 23 23 23 24 25 24 24 22 25 26 28 24 23
52 50 47 48 49 51 54 55 54 53 47 44 43 40 37 33 30 29 28 27 24 23 22 20 21 22 25 25 25 20 19 21 19 19 20 20 22 25
48 44 45 47 49 50 52 53 53 53 49 47 45 43 40 37 33 32 32 31 29 28 27 26 27 26 25 24 24 25 25 24 23 22 23 24 25 25
45 44 47 48 50 49 50 53 53 53 54 49 47 45 43 40 37 35 34 34 33 32 32 33 33 34 34 33 32 30 28 28 28 27 27 27 27 28
44 45 46 46 45 44 47 49 53 53 56 50 49 48 46 44 41 39 36 35 36 34 33 34 36 36 36 36 36 35 35 35 34 33 32 32 33 33
41 40 42 44 44 43 39 49 45 50 56 51 49 48 48 47 44 41 40 39 39 38 38 39 40 41 41 40 39 40 40 40 40 40 40 40 40 41
28 30 34 33 34 42 33 40 46 42 54 52 49 48 48 48 47 44 43 42 43 44 43 42 43 44 44 44 44 44 44 46 47 48 49 48 48 49
22 27 28 32 29 41 38 37 40 34 39 55 49 48 48 48 48 46 44 44 44 44 44 45 46 46 47 48 48 48 50 51 52 53 54 55 56 58
Wind_Direction
257 258 261 267 269 268 267 267 267 268 269 269 269 268 265 264 265 265 265 265 263 263 265 265 266 265 263 263 263 263 262 261 259 258 261 264 266 264
252 254 255 257 259 260 259 261 265 267 268 269 269 269 269 268 267 266 265 265 264 264 265 266 267 268 268 264 262 262 262 261 260 260 259 252 256 264
256 253 255 256 257 260 262 264 266 270 272 273 275 273 273 273 271 269 266 265 265 266 266 269 268 269 267 264 262 261 260 259 259 259 258 257 264 260
259 257 256 256 258 262 264 266 270 274 277 277 277 279 277 274 272 270 267 265 265 266 267 270 269 267 264 261 261 259 259 258 256 258 259 261 260 261
267 257 255 257 259 262 264 268 273 277 282 285 285 280 279 279 274 269 265 262 262 262 266 268 268 266 263 259 258 259 258 257 257 255 255 258 251 261
271 261 256 258 259 261 263 267 272 279 287 282 285 289 285 286 281 273 267 264 260 261 265 268 269 269 266 262 258 258 257 255 255 256 255 255 257 260
265 263 258 257 260 260 261 265 270 279 287 285 286 289 286 284 280 273 269 266 265 266 267 267 267 269 267 262 259 255 254 252 252 253 254 253 254 257
259 259 258 258 259 261 260 262 269 277 282 286 287 287 286 283 278 273 269 266 266 271 272 275 273 277 265 251 251 257 252 251 251 253 251 252 254 254
259 257 257 259 260 261 260 262 267 273 280 285 285 283 282 278 273 272 274 275 271 269 276 276 269 274 266 263 271 252 256 253 249 252 252 252 254 252
258 258 257 257 258 260 262 263 266 270 275 279 280 285 278 276 268 269 275 280 273 272 280 276 271 273 254 256 258 256 257 257 258 254 250 249 252 256
257 256 255 256 257 258 260 261 264 267 270 273 277 279 280 273 271 270 272 272 272 269 277 281 272 263 252 255 260 262 261 253 247 251 253 252 250 248
258 256 254 254 255 256 257 258 260 263 265 267 272 275 277 271 268 266 267 268 264 268 278 280 268 258 254 253 257 258 264 262 252 251 249 246 247 255
257 256 254 253 252 253 255 256 256 257 259 260 265 271 271 270 268 263 262 262 268 267 273 271 275 263 259 253 254 254 248 252 257 250 251 253 257 261
257 257 256 255 251 250 251 252 253 252 252 254 259 263 268 269 267 261 255 254 262 261 269 260 259 260 250 259 262 261 256 252 254 254 249 252 264 255
258 258 257 255 252 248 249 249 250 247 245 247 249 251 254 260 256 255 255 261 261 257 259 262 255 251 248 253 253 251 252 257 250 243 237 242 261 259
258 257 256 255 252 247 245 247 246 245 238 241 242 243 245 246 253 252 249 254 255 255 261 262 261 248 245 244 247 256 260 249 242 239 246 244 246 248
254 255 251 246 245 243 240 242 243 246 233 236 237 238 240 241 246 250 252 255 258 256 256 257 258 255 254 249 250 253 249 244 241 245 247 252 256 263
249 246 241 241 239 240 238 237 241 244 230 234 233 235 237 240 242 247 251 253 254 255 257 257 257 257 252 247 245 246 251 253 251 248 251 256 258 261
242 239 236 235 236 237 235 232 237 239 233 228 232 234 236 239 240 241 245 249 251 253 256 257 256 253 250 249 248 248 248 247 249 250 251 254 254 256
242 238 235 235 232 236 238 232 236 239 231 225 230 232 236 239 241 242 243 245 247 250 255 258 256 255 254 254 253 251 251 250 249 250 253 256 259 262
246 243 237 235 235 229 237 234 238 239 229 222 229 231 235 239 241 243 245 246 248 250 255 259 261 258 256 254 254 254 254 254 253 256 258 259 261 265
246 237 231 234 240 229 239 238 236 242 233 222 229 231 235 238 241 242 244 245 249 252 253 259 262 261 257 256 257 258 259 259 259 260 262 263 265 270
215 219 228 235 239 233 246 242 236 234 242 226 227 230 234 238 241 242 244 247 248 251 254 259 259 260 260 259 260 260 261 263 264 265 265 268 270 273